CORVUS BC1

Last updated on Sat Aug 15 2026 00:03:44 GMT+0000 (Coordinated Universal Time)

1 42847U 17042Y 26226.43580157 .00001265 00000+0 88957-4 0 9994 2 42847 97.4163 26.4076 0010287 245.2810 114.7348 15.06762108495868
UTC large
Height (km)
Speed (km/s)
/
Latitude / Longitude
Inclination (degrees)
Orbital Period (minutes)
Azimuth
Elevation
Range (km)
Doppler Factor

Next 0 passes for location: London (51.5072 / 0.1276)

No passes found over London.
CORVUS BC1